When you browse on this site, cookies collect data to enhance your experience and personalize the content and advertising you see.
Visit our Privacy Policy to learn more. By continuing to use the site, you agree to this use of cookies and data.
  • In Switzerland
  • List of Countries
  • For 7 days
  • Water Temperature
  • Weather Map
  • Weather Widgets
  • user-avatar
    Login

    Hourly Weather Kapan

    Today, 14 October, Monday

    Time Temperature Precipitation Wind Pressure Humidity
    00:00 +11°C° 0 mm 0 mps 692 mmHg 73%
    01:00 +11°C° 0 mm 0 mps 692 mmHg 70%
    02:00 +12°C° 0 mm 1 mps 692 mmHg 67%
    03:00 +12°C° 0 mm 1 mps 692 mmHg 64%
    04:00 +12°C° 0 mm 1 mps 692 mmHg 62%
    05:00 +12°C° 0 mm 1 mps 691 mmHg 59%
    06:00 +12°C° 0 mm 1 mps 691 mmHg 56%
    07:00 +14°C° 0 mm 1 mps 692 mmHg 50%
    08:00 +16°C° 0 mm 1 mps 693 mmHg 43%
    09:00 +20°C° 0 mm 1 mps 694 mmHg 35%
    10:00 +20°C° 0 mm 2 mps 694 mmHg 33%
    11:00 +21°C° 0 mm 2 mps 693 mmHg 32%
    12:00 +23°C° 0 mm 2 mps 693 mmHg 30%
    13:00 +23°C° 0 mm 2 mps 693 mmHg 31%
    14:00 +23°C° 0 mm 2 mps 692 mmHg 31%
    15:00 +23°C° 0 mm 2 mps 692 mmHg 31%
    16:00 +20°C° 0 mm 2 mps 692 mmHg 39%
    17:00 +19°C° 0 mm 1 mps 691 mmHg 46%
    18:00 +15°C° 0 mm 0 mps 691 mmHg 54%
    19:00 +14°C° 0 mm 0 mps 691 mmHg 54%
    20:00 +14°C° 0 mm 0 mps 691 mmHg 55%
    21:00 +15°C° 0 mm 1 mps 691 mmHg 56%
    22:00 +14°C° 0 mm 1 mps 691 mmHg 56%
    23:00 +14°C° 0 mm 1 mps 691 mmHg 56%

    Tomorrow, 15 October, Tuesday

    Time Temperature Precipitation Wind Pressure Humidity
    00:00 +14°C° 0 mm 1 mps 690 mmHg 56%
    01:00 +14°C° 0 mm 1 mps 690 mmHg 55%
    02:00 +13°C° 0 mm 1 mps 690 mmHg 55%
    03:00 +13°C° 0 mm 1 mps 690 mmHg 54%
    04:00 +13°C° 0 mm 1 mps 690 mmHg 54%
    05:00 +13°C° 0 mm 1 mps 690 mmHg 53%
    06:00 +12°C° 0 mm 1 mps 689 mmHg 53%
    07:00 +15°C° 0 mm 1 mps 690 mmHg 47%
    08:00 +18°C° 0 mm 1 mps 691 mmHg 40%
    09:00 +21°C° 0 mm 1 mps 692 mmHg 34%
    10:00 +22°C° 0 mm 1 mps 691 mmHg 32%
    11:00 +23°C° 0 mm 2 mps 691 mmHg 30%
    12:00 +24°C° 0 mm 2 mps 691 mmHg 27%
    13:00 +24°C° 0 mm 2 mps 690 mmHg 28%
    14:00 +24°C° 0 mm 2 mps 690 mmHg 28%
    15:00 +25°C° 0 mm 2 mps 689 mmHg 28%
    16:00 +21°C° 0 mm 2 mps 689 mmHg 34%
    17:00 +20°C° 0 mm 1 mps 688 mmHg 40%
    18:00 +16°C° 0 mm 0 mps 687 mmHg 47%
    19:00 +16°C° 0 mm 1 mps 688 mmHg 45%
    20:00 +16°C° 0 mm 1 mps 688 mmHg 43%
    21:00 +16°C° 0 mm 1 mps 688 mmHg 41%
    22:00 +16°C° 0 mm 1 mps 688 mmHg 38%
    23:00 +15°C° 0 mm 1 mps 687 mmHg 34%

    Day after tomorrow, 16 October, Wednesday

    Time Temperature Precipitation Wind Pressure Humidity
    00:00 +15°C° 0 mm 1 mps 687 mmHg 31%
    01:00 +15°C° 0 mm 1 mps 687 mmHg 30%
    02:00 +15°C° 0 mm 1 mps 687 mmHg 28%
    03:00 +15°C° 0 mm 1 mps 687 mmHg 26%
    04:00 +15°C° 0 mm 1 mps 687 mmHg 25%
    05:00 +15°C° 0 mm 1 mps 687 mmHg 25%
    06:00 +14°C° 0 mm 1 mps 687 mmHg 24%
    07:00 +18°C° 0 mm 1 mps 688 mmHg 21%
    08:00 +21°C° 0 mm 1 mps 688 mmHg 19%
    09:00 +23°C° 0 mm 1 mps 689 mmHg 16%
    10:00 +25°C° 0 mm 1 mps 689 mmHg 16%
    11:00 +26°C° 0 mm 2 mps 689 mmHg 15%
    12:00 +27°C° 0 mm 2 mps 689 mmHg 15%
    13:00 +27°C° 0 mm 2 mps 688 mmHg 16%
    14:00 +27°C° 0 mm 2 mps 688 mmHg 18%
    15:00 +27°C° 0 mm 2 mps 687 mmHg 19%
    16:00 +24°C° 0 mm 2 mps 687 mmHg 26%
    17:00 +21°C° 0 mm 1 mps 687 mmHg 34%
    18:00 +19°C° 0 mm 1 mps 686 mmHg 41%
    19:00 +19°C° 0 mm 1 mps 686 mmHg 41%
    20:00 +18°C° 0 mm 1 mps 687 mmHg 42%
    21:00 +18°C° 0 mm 1 mps 687 mmHg 42%
    22:00 +18°C° 0 mm 1 mps 687 mmHg 41%
    23:00 +16°C° 0 mm 1 mps 687 mmHg 41%

    17 October, Thursday

    Time Temperature Precipitation Wind Pressure Humidity
    00:00 +16°C° 0 mm 1 mps 687 mmHg 41%
    01:00 +16°C° 0 mm 1 mps 687 mmHg 40%
    02:00 +15°C° 0 mm 1 mps 687 mmHg 40%
    03:00 +15°C° 0 mm 1 mps 687 mmHg 39%
    04:00 +15°C° 0 mm 1 mps 687 mmHg 39%
    05:00 +15°C° 0 mm 1 mps 687 mmHg 38%
    06:00 +15°C° 0 mm 0 mps 687 mmHg 38%
    07:00 +18°C° 0 mm 1 mps 688 mmHg 36%
    08:00 +20°C° 0 mm 1 mps 688 mmHg 35%
    09:00 +22°C° 0 mm 1 mps 689 mmHg 33%
    10:00 +23°C° 0 mm 2 mps 689 mmHg 32%
    11:00 +24°C° 0 mm 2 mps 689 mmHg 31%
    12:00 +25°C° 0 mm 3 mps 689 mmHg 31%
    13:00 +24°C° 0 mm 3 mps 688 mmHg 33%
    14:00 +24°C° 0 mm 3 mps 688 mmHg 35%
    15:00 +24°C° 0 mm 3 mps 687 mmHg 37%
    16:00 +21°C° 0 mm 2 mps 687 mmHg 45%
    17:00 +20°C° 0 mm 1 mps 687 mmHg 53%
    18:00 +16°C° 0 mm 0 mps 686 mmHg 61%
    19:00 +15°C° 0 mm 0 mps 686 mmHg 61%
    20:00 +15°C° 0 mm 0 mps 686 mmHg 60%
    21:00 +15°C° 0 mm 0 mps 687 mmHg 60%
    22:00 +15°C° 0 mm 0 mps 686 mmHg 59%
    23:00 +15°C° 0 mm 1 mps 686 mmHg 58%

    18 October, Friday

    Time Temperature Precipitation Wind Pressure Humidity
    00:00 +15°C° 0 mm 1 mps 686 mmHg 57%
    01:00 +15°C° 0 mm 1 mps 686 mmHg 55%
    02:00 +15°C° 0 mm 1 mps 686 mmHg 53%
    03:00 +15°C° 0 mm 1 mps 686 mmHg 51%
    04:00 +14°C° 0 mm 1 mps 686 mmHg 51%
    05:00 +14°C° 0 mm 1 mps 686 mmHg 51%
    06:00 +14°C° 0 mm 1 mps 686 mmHg 50%
    07:00 +16°C° 0 mm 1 mps 686 mmHg 45%
    08:00 +20°C° 0 mm 1 mps 687 mmHg 39%
    09:00 +22°C° 0 mm 1 mps 687 mmHg 33%
    10:00 +24°C° 0 mm 1 mps 687 mmHg 31%
    11:00 +25°C° 0 mm 1 mps 687 mmHg 29%
    12:00 +26°C° 0 mm 2 mps 687 mmHg 27%
    13:00 +26°C° 0 mm 2 mps 687 mmHg 27%
    14:00 +26°C° 0 mm 2 mps 686 mmHg 28%
    15:00 +26°C° 0 mm 2 mps 686 mmHg 29%
    16:00 +24°C° 0 mm 2 mps 685 mmHg 36%
    17:00 +22°C° 0 mm 1 mps 685 mmHg 44%
    18:00 +17°C° 0 mm 0 mps 684 mmHg 52%
    19:00 +19°C° 0 mm 1 mps 685 mmHg 51%
    20:00 +18°C° 0 mm 1 mps 685 mmHg 51%
    21:00 +18°C° 0 mm 1 mps 685 mmHg 51%
    22:00 +18°C° 0 mm 1 mps 685 mmHg 50%
    23:00 +18°C° 0 mm 1 mps 685 mmHg 49%

    19 October, Saturday

    Time Temperature Precipitation Wind Pressure Humidity
    00:00 +16°C° 0 mm 1 mps 685 mmHg 49%
    01:00 +16°C° 0 mm 1 mps 685 mmHg 48%
    02:00 +16°C° 0 mm 1 mps 685 mmHg 47%
    03:00 +16°C° 0 mm 1 mps 685 mmHg 47%
    04:00 +16°C° 0 mm 1 mps 685 mmHg 47%
    05:00 +15°C° 0 mm 1 mps 685 mmHg 47%
    06:00 +15°C° 0 mm 1 mps 685 mmHg 47%
    07:00 +18°C° 0 mm 1 mps 686 mmHg 44%
    08:00 +20°C° 0 mm 1 mps 687 mmHg 40%
    09:00 +23°C° 0 mm 1 mps 687 mmHg 37%
    10:00 +23°C° 0 mm 2 mps 687 mmHg 37%
    11:00 +24°C° 0 mm 2 mps 687 mmHg 36%
    12:00 +25°C° 0 mm 3 mps 687 mmHg 36%
    13:00 +24°C° 0 mm 3 mps 687 mmHg 38%
    14:00 +24°C° 0 mm 3 mps 686 mmHg 39%
    15:00 +24°C° 0 mm 3 mps 686 mmHg 41%
    16:00 +21°C° 0 mm 2 mps 686 mmHg 48%
    17:00 +20°C° 0 mm 1 mps 685 mmHg 55%
    18:00 +19°C° 0 mm 1 mps 685 mmHg 62%
    19:00 +16°C° 0 mm 0 mps 686 mmHg 62%
    20:00 +16°C° 0 mm 0 mps 686 mmHg 62%
    21:00 +16°C° 0 mm 0 mps 686 mmHg 63%
    22:00 +16°C° 0 mm 0 mps 686 mmHg 64%
    23:00 +15°C° 0 mm 0 mps 686 mmHg 66%
    Show more